Pecs, Hungary

6:07 PM CEST on July 24, 2017 (GMT +0200)
Pecs

Weather History for LHPP - October, 2012

Change the Weather History Date:

Wednesday, October 31, 2012

  Actual Average Record
Temperature  
Mean Temperature 40 °F -  
Max Temperature 51 °F 48 °F - ()
Min Temperature 28 °F 36 °F - ()
Degree Days  
Heating Degree Days 26    
Moisture  
Dew Point 34 °F    
Average Humidity 79    
Maximum Humidity 100    
Minimum Humidity 42    
Precipitation  
Precipitation 0.00 in 0.07 in - ()
Sea Level Pressure  
Sea Level Pressure 29.90 in    
Wind  
Wind Speed 6 mph ()    
Max Wind Speed 14 mph    
Max Gust Speed -    
Visibility 12.6 miles    
Events      
T = Trace of Precipitation, MM = Missing Value Source: Averaged Metar Reports

Daily Weather History Graph

Daily Weather History Graph

Search for Another Location

Airport or City:

Trip Planner

Search our weather history database for the weather conditions in past years. The results will help you decide how hot, cold, wet, or windy it might be!

Date:

Astronomy

Oct. 31, 2012 Rise Set
Actual Time 6:26 AM CET 4:34 PM CET
Civil Twilight 5:55 AM CET 5:05 PM CET
Nautical Twilight 5:20 AM CET 5:40 PM CET
Astronomical Twilight 4:45 AM CET 6:15 PM CET
Moon 5:26 PM CET (10/31) 7:57 AM CET (10/31)
Length of Visible Light 11h 10m
Length of Day
10h 07m
Full, 98% of the Moon is Illuminated
Oct 31
Full
Nov 7
Last Quarter
Nov 13
New
Nov 20
First Quarter
Nov 28
Full

Hourly Weather History & Observations

Time (CET) Temp. Windchill Dew Point Humidity Pressure Visibility Wind Dir Wind Speed Gust Speed Precip Events Conditions
12:45 AM 32.0 °F - 28.4 °F 87% 29.92 in - East 2.3 mph - N/A   Clear
1:00 AM 31 °F - 28 °F 86% 29.96 in 12 mi East 2.2 mph - -   Partly Cloudy
1:45 AM 32.0 °F 28.7 °F 28.4 °F 87% 29.92 in - East 3.5 mph - N/A   Clear
2:45 AM 30.2 °F 25.4 °F 28.4 °F 93% 29.92 in - East 4.6 mph - N/A   Clear
3:45 AM 30.2 °F 26.7 °F 28.4 °F 93% 29.89 in - NE 3.5 mph - N/A   Clear
4:45 AM 28.4 °F 23.3 °F 26.6 °F 93% 29.92 in - ENE 4.6 mph - N/A   Clear
5:15 AM 30.2 °F 25.4 °F 28.4 °F 93% 29.92 in - East 4.6 mph - N/A   Clear
5:45 AM 30.2 °F 25.4 °F 28.4 °F 93% 29.92 in - NE 4.6 mph - N/A   Clear
6:00 AM - - - N/A% - - ENE 4.6 mph - N/A   Clear
6:15 AM 28.4 °F 23.3 °F 28.4 °F 100% 29.92 in - ENE 4.6 mph - N/A   Clear
6:45 AM 28.4 °F 23.3 °F 28.4 °F 100% 29.92 in - ENE 4.6 mph - N/A   Clear
7:00 AM 29 °F - 28 °F 92% 29.96 in 7 mi ENE 4.5 mph - -   Partly Cloudy
7:15 AM 30.2 °F 24.3 °F 28.4 °F 93% 29.92 in - ENE 5.8 mph - N/A   Clear
7:45 AM 32.0 °F 28.7 °F 30.2 °F 93% 29.95 in - ENE 3.5 mph - N/A   Clear
8:15 AM 32.0 °F 25.6 °F 30.2 °F 93% 29.95 in - ENE 6.9 mph - N/A   Clear
8:45 AM 35.6 °F 31.7 °F 33.8 °F 93% 29.95 in - East 4.6 mph - N/A   Clear
9:00 AM - - - N/A% - - East 6.9 mph - N/A   Clear
9:15 AM 37.4 °F 32.1 °F 33.8 °F 87% 29.95 in - East 6.9 mph - N/A   Clear
9:45 AM 41.0 °F 37.1 °F 35.6 °F 81% 29.95 in 6.2 mi East 5.8 mph - N/A   Partly Cloudy
10:15 AM 44.6 °F 41.4 °F 37.4 °F 76% 29.95 in - ESE 5.8 mph - N/A   Clear
10:45 AM 46.4 °F 43.5 °F 37.4 °F 71% 29.92 in - ESE 5.8 mph - N/A   Clear
11:15 AM 48.2 °F - 37.4 °F 66% 29.92 in - SE 9.2 mph - N/A   Clear
11:45 AM 50.0 °F - 37.4 °F 62% 29.92 in - SE 6.9 mph - N/A   Clear
12:00 PM - - - N/A% - - SE 6.9 mph - N/A   Clear
12:15 PM 50.0 °F - 35.6 °F 58% 29.92 in - SE 5.8 mph - N/A   Clear
12:45 PM 51.8 °F - 35.6 °F 54% 29.92 in - SE 8.1 mph - N/A   Clear
1:00 PM 51 °F - 35 °F 42% 29.93 in 19 mi SE 6.7 mph - -   Partly Cloudy
1:15 PM 51.8 °F - 35.6 °F 54% 29.92 in - SE 8.1 mph - N/A   Clear
1:45 PM 51.8 °F - 35.6 °F 54% 29.89 in - SE 10.4 mph - N/A   Clear
2:15 PM 50.0 °F - 33.8 °F 54% 29.89 in - SE 10.4 mph - N/A   Clear
2:45 PM 50.0 °F - 35.6 °F 58% 29.89 in - SE 11.5 mph - N/A   Clear
3:00 PM - - - N/A% - - SE 12.7 mph - N/A   Clear
3:15 PM 50.0 °F - 37.4 °F 62% 29.89 in - ESE 10.4 mph - N/A   Clear
3:45 PM 48.2 °F - 35.6 °F 62% 29.89 in - ESE 12.7 mph - N/A   Clear
4:15 PM 46.4 °F 41.5 °F 35.6 °F 66% 29.89 in - ESE 10.4 mph - N/A   Clear
4:45 PM 44.6 °F 40.2 °F 35.6 °F 71% 29.89 in - ESE 8.1 mph - N/A   Clear
5:15 PM 42.8 °F 38.6 °F 35.6 °F 76% 29.89 in - ESE 6.9 mph - N/A   Clear
5:45 PM 41.0 °F 36.4 °F 35.6 °F 81% 29.89 in - East 6.9 mph - N/A   Clear
6:15 PM 41.0 °F 35.2 °F 35.6 °F 81% 29.89 in - East 9.2 mph - N/A   Clear
6:45 PM 42.8 °F 37.0 °F 35.6 °F 76% 29.86 in - East 10.4 mph - N/A   Clear
7:00 PM 42 °F - 36 °F 71% 29.88 in 19 mi East 11.2 mph - -   Partly Cloudy
7:15 PM 42.8 °F 36.2 °F 35.6 °F 76% 29.86 in - East 12.7 mph - N/A   Clear
7:45 PM 41.0 °F 34.3 °F 37.4 °F 87% 29.86 in - East 11.5 mph - N/A   Clear
8:15 PM 41.0 °F 33.9 °F 37.4 °F 87% 29.86 in - East 12.7 mph - N/A   Clear
8:45 PM 41.0 °F 35.2 °F 37.4 °F 87% 29.86 in - East 9.2 mph - N/A   Clear
9:45 PM 41.0 °F 35.8 °F 39.2 °F 93% 29.80 in - East 8.1 mph - N/A   Clear
10:45 PM 41.0 °F 33.9 °F 37.4 °F 87% 29.77 in - East 12.7 mph - N/A   Clear
11:45 PM 41.0 °F 33.5 °F 37.4 °F 87% 29.74 in - East 13.8 mph - N/A   Clear